Time,TemperatureF,DewpointF,PressureIn,WindDirection,WindDirectionDegrees,WindSpeedMPH,WindSpeedGustMPH,Humidity,HourlyPrecipIn,Conditions,Clouds,dailyrainin,SolarRadiationWatts/m^2,SoftwareType,DateUTC
2013-03-01 00:00:00,24.5,6.1,30.39,SW,233,0.0,-999.0,49,-99.99,,,0.00,0.0,cwc,2013-03-01 07:00:00,
2013-03-01 00:10:00,24.1,6.1,30.40,SW,233,2.0,-999.0,50,-99.99,,,0.00,0.0,cwc,2013-03-01 07:10:00,
2013-03-01 00:15:00,23.8,5.8,30.39,SW,233,2.0,-999.0,50,-99.99,,,0.00,0.0,cwc,2013-03-01 07:15:00,
2013-03-01 00:20:00,23.5,5.9,30.39,SW,233,2.0,-999.0,51,-99.99,,,0.00,0.0,cwc,2013-03-01 07:20:00,
2013-03-01 00:25:00,23.2,5.9,30.40,SW,233,2.0,-999.0,52,-99.99,,,0.00,0.0,cwc,2013-03-01 07:25:00,
2013-03-01 00:30:00,23.1,5.8,30.40,SW,233,3.0,-999.0,52,-99.99,,,0.00,0.0,cwc,2013-03-01 07:30:00,
2013-03-01 00:35:00,23.1,5.8,30.39,SW,233,3.0,-999.0,52,-99.99,,,0.00,0.0,cwc,2013-03-01 07:35:00,
2013-03-01 00:40:00,23.3,6.0,30.40,SW,233,3.0,-999.0,52,-99.99,,,0.00,0.0,cwc,2013-03-01 07:40:00,
2013-03-01 00:45:00,22.9,5.6,30.40,SW,233,3.0,-999.0,52,-99.99,,,0.00,0.0,cwc,2013-03-01 07:45:00,
2013-03-01 00:50:00,22.6,5.7,30.40,SW,233,3.0,-999.0,53,-99.99,,,0.00,0.0,cwc,2013-03-01 07:50:00,
2013-03-01 00:55:00,22.5,5.6,30.40,SW,233,3.0,-999.0,53,-99.99,,,0.00,0.0,cwc,2013-03-01 07:55:00,
2013-03-01 01:00:00,22.2,5.6,30.40,SW,233,3.0,-999.0,54,-99.99,,,0.00,0.0,cwc,2013-03-01 08:00:00,
2013-03-01 01:05:00,22.0,5.4,30.41,SW,233,0.0,-999.0,54,-99.99,,,0.00,0.0,cwc,2013-03-01 08:05:00,
2013-03-01 01:10:00,22.1,5.5,30.41,SW,233,2.0,-999.0,54,-99.99,,,0.00,0.0,cwc,2013-03-01 08:10:00,
2013-03-01 01:15:00,21.9,5.3,30.41,SW,233,2.0,-999.0,54,-99.99,,,0.00,0.0,cwc,2013-03-01 08:15:00,
2013-03-01 01:20:00,21.6,5.4,30.41,SW,233,3.0,-999.0,55,-99.99,,,0.00,0.0,cwc,2013-03-01 08:20:00,
2013-03-01 01:25:00,21.3,5.1,30.41,SW,233,2.0,-999.0,55,-99.99,,,0.00,0.0,cwc,2013-03-01 08:25:00,
2013-03-01 01:30:00,21.3,5.1,30.41,SW,233,3.0,-999.0,55,-99.99,,,0.00,0.0,cwc,2013-03-01 08:30:00,
2013-03-01 01:35:00,21.4,5.2,30.41,SW,233,4.0,-999.0,55,-99.99,,,0.00,0.0,cwc,2013-03-01 08:35:00,
2013-03-01 01:40:00,21.0,5.5,30.41,SW,233,3.0,-999.0,57,-99.99,,,0.00,0.0,cwc,2013-03-01 08:40:00,
2013-03-01 01:45:00,20.9,5.1,30.41,SW,233,1.0,-999.0,56,-99.99,,,0.00,0.0,cwc,2013-03-01 08:45:00,
2013-03-01 01:50:00,21.1,5.3,30.42,SW,233,0.0,-999.0,56,-99.99,,,0.00,0.0,cwc,2013-03-01 08:50:00,
2013-03-01 01:55:00,21.0,5.2,30.42,SW,233,0.0,-999.0,56,-99.99,,,0.00,0.0,cwc,2013-03-01 08:55:00,
2013-03-01 02:00:00,20.7,4.9,30.42,SW,233,2.0,-999.0,56,-99.99,,,0.00,0.0,cwc,2013-03-01 09:00:00,
2013-03-01 02:05:00,20.7,5.2,30.42,SW,233,0.0,-999.0,57,-99.99,,,0.00,0.0,cwc,2013-03-01 09:05:00,
2013-03-01 02:10:00,20.7,5.2,30.42,SW,233,2.0,-999.0,57,-99.99,,,0.00,0.0,cwc,2013-03-01 09:10:00,
2013-03-01 02:15:00,20.3,5.2,30.43,SW,233,3.0,-999.0,58,-99.99,,,0.00,0.0,cwc,2013-03-01 09:15:00,
2013-03-01 02:25:00,20.2,5.1,30.43,SW,233,2.0,-999.0,58,-99.99,,,0.00,0.0,cwc,2013-03-01 09:25:00,
2013-03-01 02:30:00,19.8,5.0,30.43,SW,233,3.0,-999.0,59,-99.99,,,0.00,0.0,cwc,2013-03-01 09:30:00,
2013-03-01 02:35:00,19.7,4.9,30.43,SW,233,3.0,-999.0,59,-99.99,,,0.00,0.0,cwc,2013-03-01 09:35:00,
2013-03-01 02:40:00,19.6,5.2,30.43,SW,233,2.0,-999.0,60,-99.99,,,0.00,0.0,cwc,2013-03-01 09:40:00,
2013-03-01 02:45:00,19.7,5.3,30.43,SW,233,3.0,-999.0,60,-99.99,,,0.00,0.0,cwc,2013-03-01 09:45:00,
2013-03-01 02:50:00,19.9,5.1,30.43,SW,233,1.0,-999.0,59,-99.99,,,0.00,0.0,cwc,2013-03-01 09:50:00,
2013-03-01 02:55:00,20.0,5.2,30.43,SW,233,0.0,-999.0,59,-99.99,,,0.00,0.0,cwc,2013-03-01 09:55:00,
2013-03-01 03:00:00,19.8,5.0,30.43,SW,233,0.0,-999.0,59,-99.99,,,0.00,0.0,cwc,2013-03-01 10:00:00,
2013-03-01 03:05:00,19.7,5.3,30.43,SW,233,3.0,-999.0,60,-99.99,,,0.00,0.0,cwc,2013-03-01 10:05:00,
2013-03-01 03:10:00,19.4,5.0,30.43,SW,233,4.0,-999.0,60,-99.99,,,0.00,0.0,cwc,2013-03-01 10:10:00,
2013-03-01 03:15:00,19.6,5.2,30.43,SW,233,3.0,-999.0,60,-99.99,,,0.00,0.0,cwc,2013-03-01 10:15:00,
2013-03-01 03:20:00,19.3,5.3,30.43,SW,233,3.0,-999.0,61,-99.99,,,0.00,0.0,cwc,2013-03-01 10:20:00,
2013-03-01 03:25:00,18.9,5.2,30.43,SW,233,2.0,-999.0,62,-99.99,,,0.00,0.0,cwc,2013-03-01 10:25:00,
2013-03-01 03:30:00,18.9,5.2,30.43,SW,233,4.0,-999.0,62,-99.99,,,0.00,0.0,cwc,2013-03-01 10:30:00,
2013-03-01 03:40:00,19.4,5.4,30.43,SW,233,0.0,-999.0,61,-99.99,,,0.00,0.0,cwc,2013-03-01 10:40:00,
2013-03-01 03:45:00,19.2,5.2,30.43,SW,233,3.0,-999.0,61,-99.99,,,0.00,0.0,cwc,2013-03-01 10:45:00,
2013-03-01 03:55:00,18.7,5.0,30.43,SW,233,2.0,-999.0,62,-99.99,,,0.00,0.0,cwc,2013-03-01 10:55:00,
2013-03-01 04:00:00,18.6,4.9,30.43,SW,233,2.0,-999.0,62,-99.99,,,0.00,0.0,cwc,2013-03-01 11:00:00,
2013-03-01 04:05:00,18.4,4.7,30.43,SW,233,1.0,-999.0,62,-99.99,,,0.00,0.0,cwc,2013-03-01 11:05:00,
2013-03-01 04:10:00,18.2,4.9,30.43,SW,233,0.0,-999.0,63,-99.99,,,0.00,0.0,cwc,2013-03-01 11:10:00,
2013-03-01 04:15:00,17.8,4.5,30.43,SW,233,2.0,-999.0,63,-99.99,,,0.00,0.0,cwc,2013-03-01 11:15:00,
2013-03-01 04:20:00,17.6,4.6,30.43,SW,233,2.0,-999.0,64,-99.99,,,0.00,0.0,cwc,2013-03-01 11:20:00,
2013-03-01 04:25:00,17.3,4.7,30.43,SW,233,5.0,-999.0,65,-99.99,,,0.00,0.0,cwc,2013-03-01 11:25:00,
2013-03-01 04:30:00,17.1,4.5,30.43,SW,233,2.0,-999.0,65,-99.99,,,0.00,0.0,cwc,2013-03-01 11:30:00,
2013-03-01 04:35:00,17.1,4.5,30.43,SW,233,3.0,-999.0,65,-99.99,,,0.00,0.0,cwc,2013-03-01 11:35:00,
2013-03-01 04:40:00,17.4,4.8,30.43,SW,233,2.0,-999.0,65,-99.99,,,0.00,0.0,cwc,2013-03-01 11:40:00,
2013-03-01 04:45:00,17.5,4.5,30.43,SW,233,3.0,-999.0,64,-99.99,,,0.00,0.0,cwc,2013-03-01 11:45:00,
2013-03-01 04:50:00,17.5,4.5,30.43,SW,233,3.0,-999.0,64,-99.99,,,0.00,0.0,cwc,2013-03-01 11:50:00,
2013-03-01 04:55:00,17.4,4.8,30.44,SW,233,2.0,-999.0,65,-99.99,,,0.00,0.0,cwc,2013-03-01 11:55:00,
2013-03-01 05:00:00,17.5,4.5,30.44,SW,233,4.0,-999.0,64,-99.99,,,0.00,0.0,cwc,2013-03-01 12:00:00,
2013-03-01 05:05:00,17.5,4.9,30.44,SW,233,4.0,-999.0,65,-99.99,,,0.00,0.0,cwc,2013-03-01 12:05:00,
2013-03-01 05:10:00,17.8,4.8,30.44,SW,233,3.0,-999.0,64,-99.99,,,0.00,0.0,cwc,2013-03-01 12:10:00,
2013-03-01 05:15:00,17.8,4.8,30.44,SW,233,3.0,-999.0,64,-99.99,,,0.00,0.0,cwc,2013-03-01 12:15:00,
2013-03-01 05:20:00,17.7,4.7,30.44,SW,233,3.0,-999.0,64,-99.99,,,0.00,0.0,cwc,2013-03-01 12:20:00,
2013-03-01 05:25:00,17.7,4.7,30.44,SW,233,4.0,-999.0,64,-99.99,,,0.00,0.0,cwc,2013-03-01 12:25:00,
2013-03-01 05:30:00,17.4,4.4,30.44,SW,233,4.0,-999.0,64,-99.99,,,0.00,0.0,cwc,2013-03-01 12:30:00,
2013-03-01 05:35:00,17.3,4.7,30.45,SW,233,2.0,-999.0,65,-99.99,,,0.00,0.0,cwc,2013-03-01 12:35:00,
2013-03-01 05:40:00,17.3,4.7,30.45,SW,233,1.0,-999.0,65,-99.99,,,0.00,0.0,cwc,2013-03-01 12:40:00,
2013-03-01 05:45:00,17.1,4.5,30.45,SW,233,3.0,-999.0,65,-99.99,,,0.00,0.0,cwc,2013-03-01 12:45:00,
2013-03-01 05:50:00,17.2,4.6,30.45,SW,233,3.0,-999.0,65,-99.99,,,0.00,0.0,cwc,2013-03-01 12:50:00,
2013-03-01 06:00:00,17.3,4.7,30.45,SW,233,2.0,-999.0,65,-99.99,,,0.00,0.0,cwc,2013-03-01 13:00:00,
2013-03-01 06:05:00,17.3,4.7,30.45,SW,233,3.0,-999.0,65,-99.99,,,0.00,0.0,cwc,2013-03-01 13:05:00,
2013-03-01 06:10:00,17.5,4.5,30.45,SW,233,3.0,-999.0,64,-99.99,,,0.00,0.0,cwc,2013-03-01 13:10:00,
2013-03-01 06:15:00,17.3,4.7,30.45,SW,233,2.0,-999.0,65,-99.99,,,0.00,0.0,cwc,2013-03-01 13:15:00,
2013-03-01 06:25:00,17.3,4.7,30.45,SW,233,2.0,-999.0,65,-99.99,,,0.00,0.0,cwc,2013-03-01 13:25:00,
2013-03-01 06:30:00,17.2,4.6,30.46,SW,233,2.0,-999.0,65,-99.99,,,0.00,0.0,cwc,2013-03-01 13:30:00,
2013-03-01 06:40:00,17.0,4.8,30.46,SW,233,3.0,-999.0,66,-99.99,,,0.00,7.0,cwc,2013-03-01 13:40:00,
2013-03-01 06:45:00,17.3,4.7,30.46,SW,233,1.0,-999.0,65,-99.99,,,0.00,9.0,cwc,2013-03-01 13:45:00,
2013-03-01 06:50:00,17.3,4.7,30.46,SW,233,1.0,-999.0,65,-99.99,,,0.00,12.0,cwc,2013-03-01 13:50:00,
2013-03-01 06:55:00,17.2,4.6,30.47,SW,233,3.0,-999.0,65,-99.99,,,0.00,18.0,cwc,2013-03-01 13:55:00,
2013-03-01 07:00:00,17.3,5.1,30.47,SW,233,2.0,-999.0,66,-99.99,,,0.00,28.0,cwc,2013-03-01 14:00:00,
2013-03-01 07:05:00,17.4,5.2,30.47,SW,233,2.0,-999.0,66,-99.99,,,0.00,32.0,cwc,2013-03-01 14:05:00,
2013-03-01 07:10:00,17.5,5.3,30.47,SW,233,3.0,-999.0,66,-99.99,,,0.00,49.0,cwc,2013-03-01 14:10:00,
2013-03-01 07:15:00,17.8,5.6,30.47,SW,233,3.0,-999.0,66,-99.99,,,0.00,72.0,cwc,2013-03-01 14:15:00,
2013-03-01 07:20:00,18.2,6.0,30.47,SW,233,0.0,-999.0,66,-99.99,,,0.00,90.0,cwc,2013-03-01 14:20:00,
2013-03-01 07:25:00,18.8,6.2,30.47,SW,233,0.0,-999.0,65,-99.99,,,0.00,109.0,cwc,2013-03-01 14:25:00,
2013-03-01 07:30:00,19.3,6.3,30.47,SW,233,0.0,-999.0,64,-99.99,,,0.00,123.0,cwc,2013-03-01 14:30:00,
2013-03-01 07:35:00,20.1,6.8,30.47,SW,233,0.0,-999.0,63,-99.99,,,0.00,146.0,cwc,2013-03-01 14:35:00,
2013-03-01 07:40:00,21.1,7.4,30.48,SW,233,0.0,-999.0,62,-99.99,,,0.00,162.0,cwc,2013-03-01 14:40:00,
2013-03-01 07:45:00,22.0,7.6,30.49,SW,233,1.0,-999.0,60,-99.99,,,0.00,192.0,cwc,2013-03-01 14:45:00,
2013-03-01 07:50:00,22.9,8.1,30.48,SW,233,0.0,-999.0,59,-99.99,,,0.00,213.0,cwc,2013-03-01 14:50:00,
2013-03-01 07:55:00,23.7,8.2,30.48,SW,233,0.0,-999.0,57,-99.99,,,0.00,230.0,cwc,2013-03-01 14:55:00,
2013-03-01 08:00:00,24.7,8.1,30.48,SW,233,0.0,-999.0,54,-99.99,,,0.00,260.0,cwc,2013-03-01 15:00:00,
2013-03-01 08:05:00,25.6,8.7,30.48,SW,233,0.0,-999.0,53,-99.99,,,0.00,271.0,cwc,2013-03-01 15:05:00,
2013-03-01 08:10:00,26.6,9.3,30.48,SW,233,0.0,-999.0,52,-99.99,,,0.00,297.0,cwc,2013-03-01 15:10:00,
2013-03-01 08:15:00,27.3,9.7,30.48,SW,233,0.0,-999.0,51,-99.99,,,0.00,309.0,cwc,2013-03-01 15:15:00,
2013-03-01 08:20:00,28.1,9.7,30.48,SW,233,0.0,-999.0,49,-99.99,,,0.00,332.0,cwc,2013-03-01 15:20:00,
2013-03-01 08:25:00,29.0,9.9,30.48,SW,233,0.0,-999.0,47,-99.99,,,0.00,350.0,cwc,2013-03-01 15:25:00,
2013-03-01 08:30:00,29.8,10.7,30.47,SW,233,0.0,-999.0,47,-99.99,,,0.00,367.0,cwc,2013-03-01 15:30:00,
2013-03-01 08:35:00,31.1,10.9,30.47,SW,233,1.0,-999.0,44,-99.99,,,0.00,383.0,cwc,2013-03-01 15:35:00,
2013-03-01 08:40:00,31.5,11.0,30.47,SW,234,1.0,-999.0,43,-99.99,,,0.00,397.0,cwc,2013-03-01 15:40:00,
2013-03-01 08:45:00,31.6,11.1,30.47,SW,235,2.0,-999.0,43,-99.99,,,0.00,415.0,cwc,2013-03-01 15:45:00,
2013-03-01 08:50:00,31.7,11.2,30.47,SW,234,2.0,-999.0,43,-99.99,,,0.00,431.0,cwc,2013-03-01 15:50:00,
2013-03-01 08:55:00,32.1,11.6,30.47,SW,236,0.0,-999.0,43,-99.99,,,0.00,446.0,cwc,2013-03-01 15:55:00,
2013-03-01 09:00:00,32.6,11.7,30.47,WSW,238,2.0,-999.0,42,-99.99,,,0.00,462.0,cwc,2013-03-01 16:00:00,
2013-03-01 09:10:00,34.4,13.2,30.46,East,89,1.0,-999.0,41,-99.99,,,0.00,492.0,cwc,2013-03-01 16:10:00,
2013-03-01 09:15:00,35.5,13.5,30.46,East,88,0.0,-999.0,39,-99.99,,,0.00,508.0,cwc,2013-03-01 16:15:00,
2013-03-01 09:20:00,36.5,14.5,30.45,East,89,2.0,-999.0,39,-99.99,,,0.00,522.0,cwc,2013-03-01 16:20:00,
2013-03-01 09:30:00,37.6,14.9,30.45,East,88,0.0,-999.0,37,-99.99,,,0.00,554.0,cwc,2013-03-01 16:30:00,
2013-03-01 09:35:00,38.4,15.4,30.45,East,88,1.0,-999.0,36,-99.99,,,0.00,568.0,cwc,2013-03-01 16:35:00,
2013-03-01 09:40:00,39.2,16.2,30.45,East,89,0.0,-999.0,36,-99.99,,,0.00,582.0,cwc,2013-03-01 16:40:00,
2013-03-01 09:45:00,40.0,16.6,30.45,East,89,0.0,-999.0,35,-99.99,,,0.00,592.0,cwc,2013-03-01 16:45:00,
2013-03-01 09:50:00,40.7,16.9,30.44,East,88,1.0,-999.0,34,-99.99,,,0.00,606.0,cwc,2013-03-01 16:50:00,
2013-03-01 09:55:00,41.3,17.2,30.44,East,86,5.0,-999.0,33,-99.99,,,0.00,615.0,cwc,2013-03-01 16:55:00,
2013-03-01 10:00:00,41.4,16.9,30.43,North,360,1.0,-999.0,32,-99.99,,,0.00,631.0,cwc,2013-03-01 17:00:00,
2013-03-01 10:05:00,41.4,16.9,30.43,NE,37,5.0,-999.0,32,-99.99,,,0.00,643.0,cwc,2013-03-01 17:05:00,
2013-03-01 10:10:00,41.5,17.0,30.43,NNE,18,3.0,-999.0,32,-99.99,,,0.00,652.0,cwc,2013-03-01 17:10:00,
2013-03-01 10:40:00,43.1,17.9,30.42,SE,146,1.0,-999.0,30,-99.99,,,0.00,715.0,cwc,2013-03-01 17:40:00,
2013-03-01 10:50:00,44.3,18.7,30.42,East,99,1.0,-999.0,29,-99.99,,,0.00,731.0,cwc,2013-03-01 17:50:00,
2013-03-01 10:55:00,44.4,18.8,30.42,ESE,105,0.0,-999.0,29,-99.99,,,0.00,738.0,cwc,2013-03-01 17:55:00,
2013-03-01 11:00:00,44.4,18.8,30.42,SSW,193,2.0,-999.0,29,-99.99,,,0.00,745.0,cwc,2013-03-01 18:00:00,
2013-03-01 11:10:00,43.9,18.3,30.42,North,5,3.0,-999.0,29,-99.99,,,0.00,754.0,cwc,2013-03-01 18:10:00,
2013-03-01 11:15:00,43.9,18.7,30.41,NNE,33,7.0,-999.0,30,-99.99,,,0.00,761.0,cwc,2013-03-01 18:15:00,
2013-03-01 11:25:00,44.1,18.5,30.41,NNE,32,4.0,-999.0,29,-99.99,,,0.00,773.0,cwc,2013-03-01 18:25:00,
2013-03-01 11:30:00,44.1,18.5,30.41,NNE,33,0.0,-999.0,29,-99.99,,,0.00,773.0,cwc,2013-03-01 18:30:00,
2013-03-01 11:35:00,44.3,18.7,30.41,ENE,61,5.0,-999.0,29,-99.99,,,0.00,780.0,cwc,2013-03-01 18:35:00,
2013-03-01 11:40:00,44.6,19.0,30.41,ENE,71,2.0,-999.0,29,-99.99,,,0.00,784.0,cwc,2013-03-01 18:40:00,
2013-03-01 11:45:00,45.1,19.2,30.41,ENE,68,3.0,-999.0,28,-99.99,,,0.00,788.0,cwc,2013-03-01 18:45:00,
2013-03-01 11:55:00,46.2,20.3,30.40,ENE,71,0.0,-999.0,28,-99.99,,,0.00,795.0,cwc,2013-03-01 18:55:00,
2013-03-01 12:00:00,46.3,20.0,30.40,SSW,192,7.0,-999.0,27,-99.99,,,0.00,796.0,cwc,2013-03-01 19:00:00,
2013-03-01 12:10:00,46.3,20.0,30.39,SSW,196,6.0,-999.0,27,-99.99,,,0.00,795.0,cwc,2013-03-01 19:10:00,
2013-03-01 12:15:00,46.6,20.3,30.39,SSW,211,7.0,-999.0,27,-99.99,,,0.00,795.0,cwc,2013-03-01 19:15:00,
2013-03-01 12:20:00,46.3,20.0,30.39,WSW,238,4.0,-999.0,27,-99.99,,,0.00,793.0,cwc,2013-03-01 19:20:00,
2013-03-01 12:25:00,46.4,20.1,30.38,SSE,161,0.0,-999.0,27,-99.99,,,0.00,793.0,cwc,2013-03-01 19:25:00,
2013-03-01 12:30:00,47.0,20.7,30.38,SSE,159,1.0,-999.0,27,-99.99,,,0.00,791.0,cwc,2013-03-01 19:30:00,
2013-03-01 12:35:00,47.3,21.0,30.38,ESE,120,3.0,-999.0,27,-99.99,,,0.00,793.0,cwc,2013-03-01 19:35:00,
2013-03-01 12:40:00,47.5,21.2,30.37,ENE,71,3.0,-999.0,27,-99.99,,,0.00,795.0,cwc,2013-03-01 19:40:00,
2013-03-01 12:45:00,47.8,21.2,30.37,ESE,117,7.0,-999.0,26,-99.99,,,0.00,791.0,cwc,2013-03-01 19:45:00,
2013-03-01 12:55:00,48.1,21.5,30.36,North,5,1.0,-999.0,26,-99.99,,,0.00,786.0,cwc,2013-03-01 19:55:00,
2013-03-01 13:00:00,48.3,21.7,30.36,NE,38,1.0,-999.0,26,-99.99,,,0.00,779.0,cwc,2013-03-01 20:00:00,
2013-03-01 13:05:00,48.8,22.2,30.36,SSE,150,4.0,-999.0,26,-99.99,,,0.00,775.0,cwc,2013-03-01 20:05:00,
2013-03-01 13:10:00,48.9,22.3,30.35,East,87,0.0,-999.0,26,-99.99,,,0.00,775.0,cwc,2013-03-01 20:10:00,
2013-03-01 13:15:00,49.0,22.4,30.35,East,95,0.0,-999.0,26,-99.99,,,0.00,772.0,cwc,2013-03-01 20:15:00,
2013-03-01 13:20:00,49.2,22.6,30.35,East,99,2.0,-999.0,26,-99.99,,,0.00,768.0,cwc,2013-03-01 20:20:00,
2013-03-01 13:25:00,49.9,22.9,30.34,SSE,155,1.0,-999.0,25,-99.99,,,0.00,761.0,cwc,2013-03-01 20:25:00,
2013-03-01 13:30:00,50.5,23.5,30.34,East,82,2.0,-999.0,25,-99.99,,,0.00,751.0,cwc,2013-03-01 20:30:00,
2013-03-01 13:35:00,50.7,23.7,30.34,NE,44,0.0,-999.0,25,-99.99,,,0.00,742.0,cwc,2013-03-01 20:35:00,
2013-03-01 13:40:00,51.2,23.8,30.34,North,5,5.0,-999.0,24,-99.99,,,0.00,731.0,cwc,2013-03-01 20:40:00,
2013-03-01 15:25:00,54.2,26.5,30.31,SW,236,4.0,-999.0,23,-99.99,,,0.00,489.0,cwc,2013-03-01 22:25:00,
2013-03-01 15:30:00,54.0,26.3,30.31,SW,236,0.0,-999.0,23,-99.99,,,0.00,471.0,cwc,2013-03-01 22:30:00,
2013-03-01 15:35:00,54.6,26.9,30.31,SW,236,4.0,-999.0,23,-99.99,,,0.00,455.0,cwc,2013-03-01 22:35:00,
2013-03-01 15:40:00,54.8,27.1,30.31,SW,227,1.0,-999.0,23,-99.99,,,0.00,439.0,cwc,2013-03-01 22:40:00,
2013-03-01 15:45:00,55.1,27.0,30.30,SW,227,4.0,-999.0,22,-99.99,,,0.00,427.0,cwc,2013-03-01 22:45:00,
2013-03-01 15:50:00,54.7,26.6,30.30,SW,228,2.0,-999.0,22,-99.99,,,0.00,408.0,cwc,2013-03-01 22:50:00,
2013-03-01 15:55:00,54.1,26.4,30.30,SW,227,1.0,-999.0,23,-99.99,,,0.00,404.0,cwc,2013-03-01 22:55:00,
2013-03-01 16:00:00,53.7,26.0,30.30,SW,228,1.0,-999.0,23,-99.99,,,0.00,373.0,cwc,2013-03-01 23:00:00,
2013-03-01 16:05:00,53.4,25.7,30.30,SW,227,0.0,-999.0,23,-99.99,,,0.00,359.0,cwc,2013-03-01 23:05:00,
2013-03-01 16:15:00,53.9,26.2,30.30,SW,229,0.0,-999.0,23,-99.99,,,0.00,329.0,cwc,2013-03-01 23:15:00,
2013-03-01 16:20:00,53.9,26.2,30.30,SW,229,5.0,-999.0,23,-99.99,,,0.00,287.0,cwc,2013-03-01 23:20:00,
2013-03-01 16:25:00,54.0,26.3,30.30,SW,228,0.0,-999.0,23,-99.99,,,0.00,283.0,cwc,2013-03-01 23:25:00,
2013-03-01 16:30:00,54.1,26.4,30.30,SW,229,0.0,-999.0,23,-99.99,,,0.00,262.0,cwc,2013-03-01 23:30:00,
2013-03-01 16:35:00,54.0,26.3,30.30,SW,229,1.0,-999.0,23,-99.99,,,0.00,244.0,cwc,2013-03-01 23:35:00,
2013-03-01 16:40:00,53.7,26.0,30.30,SW,229,3.0,-999.0,23,-99.99,,,0.00,221.0,cwc,2013-03-01 23:40:00,
2013-03-01 16:45:00,53.4,26.0,30.30,SW,229,2.0,-999.0,24,-99.99,,,0.00,81.0,cwc,2013-03-01 23:45:00,
2013-03-01 16:55:00,51.8,24.8,30.29,SW,228,0.0,-999.0,25,-99.99,,,0.00,21.0,cwc,2013-03-01 23:55:00,
2013-03-01 17:00:00,51.3,24.3,30.29,SW,229,2.0,-999.0,25,-99.99,,,0.00,21.0,cwc,2013-03-02 00:00:00,
2013-03-01 17:05:00,50.9,23.9,30.29,SW,229,3.0,-999.0,25,-99.99,,,0.00,19.0,cwc,2013-03-02 00:05:00,
2013-03-01 17:10:00,50.3,23.7,30.29,SW,229,0.0,-999.0,26,-99.99,,,0.00,19.0,cwc,2013-03-02 00:10:00,
2013-03-01 17:15:00,50.0,23.4,30.30,SW,229,2.0,-999.0,26,-99.99,,,0.00,18.0,cwc,2013-03-02 00:15:00,
2013-03-01 17:20:00,49.8,23.5,30.29,SW,229,1.0,-999.0,27,-99.99,,,0.00,18.0,cwc,2013-03-02 00:20:00,
2013-03-01 17:25:00,49.7,23.4,30.30,SW,229,2.0,-999.0,27,-99.99,,,0.00,16.0,cwc,2013-03-02 00:25:00,
2013-03-01 17:30:00,49.6,23.7,30.30,SW,230,4.0,-999.0,28,-99.99,,,0.00,16.0,cwc,2013-03-02 00:30:00,
2013-03-01 17:40:00,49.6,23.7,30.30,SW,229,0.0,-999.0,28,-99.99,,,0.00,12.0,cwc,2013-03-02 00:40:00,
2013-03-01 17:45:00,49.5,23.6,30.30,SW,230,2.0,-999.0,28,-99.99,,,0.00,11.0,cwc,2013-03-02 00:45:00,
2013-03-01 17:50:00,49.3,23.4,30.30,SW,230,2.0,-999.0,28,-99.99,,,0.00,9.0,cwc,2013-03-02 00:50:00,
2013-03-01 17:55:00,49.2,23.3,30.30,SW,229,4.0,-999.0,28,-99.99,,,0.00,5.0,cwc,2013-03-02 00:55:00,
2013-03-01 18:00:00,49.1,23.2,30.30,SW,229,7.0,-999.0,28,-99.99,,,0.00,0.0,cwc,2013-03-02 01:00:00,
2013-03-01 18:05:00,49.0,23.4,30.30,SW,229,0.0,-999.0,29,-99.99,,,0.00,0.0,cwc,2013-03-02 01:05:00,
2013-03-01 18:10:00,48.8,23.2,30.30,SW,229,6.0,-999.0,29,-99.99,,,0.00,0.0,cwc,2013-03-02 01:10:00,
2013-03-01 18:15:00,48.6,23.0,30.31,SW,229,5.0,-999.0,29,-99.99,,,0.00,0.0,cwc,2013-03-02 01:15:00,
2013-03-01 18:20:00,48.5,22.9,30.31,SW,222,1.0,-999.0,29,-99.99,,,0.00,0.0,cwc,2013-03-02 01:20:00,
2013-03-01 18:25:00,48.4,23.2,30.31,SW,224,0.0,-999.0,30,-99.99,,,0.00,0.0,cwc,2013-03-02 01:25:00,
2013-03-01 18:30:00,48.3,23.1,30.31,SW,225,7.0,-999.0,30,-99.99,,,0.00,0.0,cwc,2013-03-02 01:30:00,
2013-03-01 18:35:00,48.1,23.3,30.31,SW,225,2.0,-999.0,31,-99.99,,,0.00,0.0,cwc,2013-03-02 01:35:00,
2013-03-01 18:45:00,47.8,23.0,30.31,SW,227,2.0,-999.0,31,-99.99,,,0.00,0.0,cwc,2013-03-02 01:45:00,
2013-03-01 18:50:00,47.7,23.2,30.31,SW,226,5.0,-999.0,32,-99.99,,,0.00,0.0,cwc,2013-03-02 01:50:00,
2013-03-01 18:55:00,47.7,23.2,30.32,SW,226,1.0,-999.0,32,-99.99,,,0.00,0.0,cwc,2013-03-02 01:55:00,
2013-03-01 19:00:00,47.5,23.0,30.32,SW,226,1.0,-999.0,32,-99.99,,,0.00,0.0,cwc,2013-03-02 02:00:00,
2013-03-01 19:05:00,47.2,22.7,30.32,SW,226,1.0,-999.0,32,-99.99,,,0.00,0.0,cwc,2013-03-02 02:05:00,
2013-03-01 19:10:00,46.4,21.6,30.32,SW,226,2.0,-999.0,31,-99.99,,,0.00,0.0,cwc,2013-03-02 02:10:00,
2013-03-01 19:15:00,45.2,20.7,30.32,SW,226,4.0,-999.0,32,-99.99,,,0.00,0.0,cwc,2013-03-02 02:15:00,
2013-03-01 19:20:00,43.8,19.7,30.32,SW,229,3.0,-999.0,33,-99.99,,,0.00,0.0,cwc,2013-03-02 02:20:00,
2013-03-01 19:25:00,42.6,19.2,30.32,WSW,238,3.0,-999.0,35,-99.99,,,0.00,0.0,cwc,2013-03-02 02:25:00,
2013-03-01 19:30:00,41.8,18.4,30.32,NNW,336,1.0,-999.0,35,-99.99,,,0.00,0.0,cwc,2013-03-02 02:30:00,
2013-03-01 19:35:00,41.2,18.2,30.33,NNW,336,3.0,-999.0,36,-99.99,,,0.00,0.0,cwc,2013-03-02 02:35:00,
2013-03-01 19:40:00,40.5,17.8,30.33,NNW,338,2.0,-999.0,37,-99.99,,,0.00,0.0,cwc,2013-03-02 02:40:00,
2013-03-01 19:45:00,40.2,17.9,30.33,NNW,340,0.0,-999.0,38,-99.99,,,0.00,0.0,cwc,2013-03-02 02:45:00,
2013-03-01 19:50:00,40.0,17.7,30.33,NNW,340,2.0,-999.0,38,-99.99,,,0.00,0.0,cwc,2013-03-02 02:50:00,
2013-03-01 19:55:00,39.7,17.4,30.33,NNW,340,0.0,-999.0,38,-99.99,,,0.00,0.0,cwc,2013-03-02 02:55:00,
2013-03-01 20:00:00,39.1,17.1,30.34,NNW,340,0.0,-999.0,39,-99.99,,,0.00,0.0,cwc,2013-03-02 03:00:00,
2013-03-01 20:05:00,38.4,16.8,30.34,NNW,340,0.0,-999.0,40,-99.99,,,0.00,0.0,cwc,2013-03-02 03:05:00,
2013-03-01 20:10:00,38.0,16.8,30.34,NNW,340,0.0,-999.0,41,-99.99,,,0.00,0.0,cwc,2013-03-02 03:10:00,
2013-03-01 20:15:00,37.7,16.5,30.35,NNW,340,1.0,-999.0,41,-99.99,,,0.00,0.0,cwc,2013-03-02 03:15:00,
2013-03-01 20:20:00,37.6,16.7,30.35,NNW,340,0.0,-999.0,42,-99.99,,,0.00,0.0,cwc,2013-03-02 03:20:00,
2013-03-01 20:25:00,37.6,16.7,30.35,NNW,340,1.0,-999.0,42,-99.99,,,0.00,0.0,cwc,2013-03-02 03:25:00,
2013-03-01 20:30:00,37.5,16.6,30.35,NNW,340,0.0,-999.0,42,-99.99,,,0.00,0.0,cwc,2013-03-02 03:30:00,
2013-03-01 20:35:00,37.1,16.2,30.35,NNW,340,0.0,-999.0,42,-99.99,,,0.00,0.0,cwc,2013-03-02 03:35:00,
2013-03-01 20:40:00,36.0,15.5,30.35,NNW,338,2.0,-999.0,43,-99.99,,,0.00,0.0,cwc,2013-03-02 03:40:00,
2013-03-01 20:45:00,34.7,14.9,30.36,NNW,338,2.0,-999.0,45,-99.99,,,0.00,0.0,cwc,2013-03-02 03:45:00,
2013-03-01 20:50:00,33.9,14.5,30.36,NNW,339,4.0,-999.0,46,-99.99,,,0.00,0.0,cwc,2013-03-02 03:50:00,
2013-03-01 20:55:00,33.2,14.1,30.36,NNW,338,3.0,-999.0,47,-99.99,,,0.00,0.0,cwc,2013-03-02 03:55:00,
2013-03-01 21:00:00,32.9,14.2,30.36,NNW,338,2.0,-999.0,48,-99.99,,,0.00,0.0,cwc,2013-03-02 04:00:00,
2013-03-01 21:05:00,32.5,14.1,30.37,NNW,338,2.0,-999.0,49,-99.99,,,0.00,0.0,cwc,2013-03-02 04:05:00,
2013-03-01 21:10:00,32.3,13.9,30.37,NNW,338,0.0,-999.0,49,-99.99,,,0.00,0.0,cwc,2013-03-02 04:10:00,
2013-03-01 21:15:00,32.3,14.3,30.38,NNW,338,1.0,-999.0,50,-99.99,,,0.00,0.0,cwc,2013-03-02 04:15:00,
2013-03-01 21:20:00,32.4,14.0,30.38,NNW,338,0.0,-999.0,49,-99.99,,,0.00,0.0,cwc,2013-03-02 04:20:00,
2013-03-01 21:25:00,31.9,13.5,30.39,NNW,338,0.0,-999.0,49,-99.99,,,0.00,0.0,cwc,2013-03-02 04:25:00,
2013-03-01 21:30:00,31.2,13.6,30.39,NNW,338,3.0,-999.0,51,-99.99,,,0.00,0.0,cwc,2013-03-02 04:30:00,
2013-03-01 21:35:00,30.7,13.4,30.40,NNW,338,3.0,-999.0,52,-99.99,,,0.00,0.0,cwc,2013-03-02 04:35:00,
2013-03-01 21:40:00,31.1,14.2,30.40,NNW,338,2.0,-999.0,53,-99.99,,,0.00,0.0,cwc,2013-03-02 04:40:00,
2013-03-01 21:45:00,31.0,13.7,30.39,WNW,294,3.0,-999.0,52,-99.99,,,0.00,0.0,cwc,2013-03-02 04:45:00,
2013-03-01 21:50:00,30.7,13.8,30.40,WNW,292,5.0,-999.0,53,-99.99,,,0.00,0.0,cwc,2013-03-02 04:50:00,
2013-03-01 21:55:00,31.1,14.2,30.40,WNW,292,3.0,-999.0,53,-99.99,,,0.00,0.0,cwc,2013-03-02 04:55:00,
2013-03-01 22:00:00,31.6,14.0,30.40,WNW,292,2.0,-999.0,51,-99.99,,,0.00,0.0,cwc,2013-03-02 05:00:00,
2013-03-01 22:05:00,31.4,13.8,30.40,WNW,292,3.0,-999.0,51,-99.99,,,0.00,0.0,cwc,2013-03-02 05:05:00,
2013-03-01 22:10:00,31.0,13.7,30.41,WNW,292,3.0,-999.0,52,-99.99,,,0.00,0.0,cwc,2013-03-02 05:10:00,
2013-03-01 22:15:00,30.7,13.4,30.41,WNW,292,3.0,-999.0,52,-99.99,,,0.00,0.0,cwc,2013-03-02 05:15:00,
2013-03-01 22:20:00,30.5,13.6,30.41,WNW,292,2.0,-999.0,53,-99.99,,,0.00,0.0,cwc,2013-03-02 05:20:00,
2013-03-01 22:25:00,30.5,14.3,30.40,WNW,292,0.0,-999.0,55,-99.99,,,0.00,0.0,cwc,2013-03-02 05:25:00,
2013-03-01 22:30:00,30.4,13.8,30.40,WNW,290,5.0,-999.0,54,-99.99,,,0.00,0.0,cwc,2013-03-02 05:30:00,
2013-03-01 22:35:00,29.9,13.7,30.41,WNW,290,3.0,-999.0,55,-99.99,,,0.00,0.0,cwc,2013-03-02 05:35:00,
2013-03-01 22:40:00,30.3,14.1,30.40,WNW,290,3.0,-999.0,55,-99.99,,,0.00,0.0,cwc,2013-03-02 05:40:00,
2013-03-01 22:45:00,30.7,13.8,30.41,WNW,290,4.0,-999.0,53,-99.99,,,0.00,0.0,cwc,2013-03-02 05:45:00,
2013-03-01 22:50:00,30.1,13.5,30.41,WNW,288,3.0,-999.0,54,-99.99,,,0.00,0.0,cwc,2013-03-02 05:50:00,
2013-03-01 22:55:00,30.2,13.6,30.41,WNW,288,1.0,-999.0,54,-99.99,,,0.00,0.0,cwc,2013-03-02 05:55:00,
2013-03-01 23:00:00,30.1,13.5,30.41,WNW,288,2.0,-999.0,54,-99.99,,,0.00,0.0,cwc,2013-03-02 06:00:00,
2013-03-01 23:05:00,29.8,13.6,30.41,WNW,288,1.0,-999.0,55,-99.99,,,0.00,0.0,cwc,2013-03-02 06:05:00,
2013-03-01 23:10:00,29.4,13.2,30.41,WNW,288,1.0,-999.0,55,-99.99,,,0.00,0.0,cwc,2013-03-02 06:10:00,
2013-03-01 23:15:00,29.2,13.4,30.41,WNW,288,2.0,-999.0,56,-99.99,,,0.00,0.0,cwc,2013-03-02 06:15:00,
2013-03-01 23:20:00,28.7,13.2,30.41,WNW,288,3.0,-999.0,57,-99.99,,,0.00,0.0,cwc,2013-03-02 06:20:00,
2013-03-01 23:25:00,28.8,13.3,30.41,WNW,288,1.0,-999.0,57,-99.99,,,0.00,0.0,cwc,2013-03-02 06:25:00,
2013-03-01 23:30:00,28.5,13.4,30.42,WNW,288,2.0,-999.0,58,-99.99,,,0.00,0.0,cwc,2013-03-02 06:30:00,
2013-03-01 23:35:00,28.7,13.6,30.42,WNW,288,0.0,-999.0,58,-99.99,,,0.00,0.0,cwc,2013-03-02 06:35:00,
2013-03-01 23:40:00,28.5,13.0,30.42,WNW,288,1.0,-999.0,57,-99.99,,,0.00,0.0,cwc,2013-03-02 06:40:00,
2013-03-01 23:45:00,28.3,13.2,30.42,WNW,288,0.0,-999.0,58,-99.99,,,0.00,0.0,cwc,2013-03-02 06:45:00,
2013-03-01 23:50:00,28.1,13.0,30.42,WNW,288,0.0,-999.0,58,-99.99,,,0.00,0.0,cwc,2013-03-02 06:50:00,
2013-03-01 23:55:00,27.9,12.8,30.42,WNW,288,0.0,-999.0,58,-99.99,,,0.00,0.0,cwc,2013-03-02 06:55:00,